Retour au catalogue

DELTA 1 DEB

ActifSSO
NORAD 21450·DEBRIS·🇺🇸 United States

Lancé Jun 12, 1975 depuis Vandenberg Space Force Base

Loading…

Prochains Passages (prochaines 24 heures)

TLE

FraisSource: Space-Track

Époque: Sep 14, 2026, 04:35 UTC

1 21450U 75052EJ  26257.19107750  .00000116  00000-0  31012-3 0  9991
2 21450  99.8346 140.0613 0060277  38.6731 112.8857 13.35416337721297

Suivez DELTA 1 DEB en temps réel avec AllMySat

Download on the App Store